This is the latest recevied weather packets stored in our database for station/object IT9CNT. If no packets are shown the sender has not sent any weather packets the latest 10 day(s).
| Time | Temp. | Humidity | Pressure | Rain* | Wind** | Luminosity | Snow |
|---|---|---|---|---|---|---|---|
| 1787657043 | 31.67° C | 74% | 1014.1 hPa | 0 mm | - | - | - |
| 1787656983 | 31.67° C | 75% | 1014.2 hPa | 0 mm | - | - | - |
| 1787656924 | 31.67° C | 77% | 1014.1 hPa | 0 mm | - | - | - |
| 1787656864 | 31.67° C | 77% | 1014.2 hPa | 0 mm | - | - | - |
| 1787656804 | 31.67° C | 76% | 1014.1 hPa | 0 mm | - | - | - |
| 1787656743 | 31.11° C | 77% | 1014.1 hPa | 0 mm | - | - | - |
| 1787656684 | 31.11° C | 77% | 1014.4 hPa | 0 mm | - | - | - |
| 1787656623 | 32.22° C | 76% | 1014.5 hPa | 0 mm | - | - | - |
| 1787656563 | 32.22° C | 76% | 1014.2 hPa | 0 mm | - | - | - |
| 1787656503 | 31.11° C | 80% | 1014.3 hPa | 0 mm | - | - | - |
| 1787656443 | 31.11° C | 80% | 1014.2 hPa | 0 mm | - | - | - |
| 1787656383 | 31.11° C | 80% | 1014.4 hPa | 0 mm | - | - | - |
| 1787656323 | 31.11° C | 80% | 1014.3 hPa | 0 mm | - | - | - |
| 1787656263 | 31.11° C | 80% | 1014.1 hPa | 0 mm | - | - | - |
| 1787656203 | 31.11° C | 80% | 1014.1 hPa | 0 mm | - | - | - |
| 1787656144 | 30.56° C | 81% | 1014.2 hPa | 0 mm | - | - | - |
| 1787656083 | 30.56° C | 81% | 1014.1 hPa | 0 mm | - | - | - |
| 1787656023 | 30.56° C | 81% | 1014.1 hPa | 0 mm | - | - | - |
| 1787655963 | 30.56° C | 81% | 1014.1 hPa | 0 mm | - | - | - |
| 1787655903 | 30.56° C | 81% | 1014.3 hPa | 0 mm | - | - | - |
| 1787655843 | 30.56° C | 81% | 1014.1 hPa | 0 mm | - | - | - |
| 1787655783 | 31.11° C | 80% | 1014.1 hPa | 0 mm | - | - | - |
| 1787655723 | 31.11° C | 80% | 1014 hPa | 0 mm | - | - | - |
| 1787655663 | 31.11° C | 80% | 1014.3 hPa | 0 mm | - | - | - |
| 1787655604 | 30.56° C | 80% | 1014.1 hPa | 0 mm | - | - | - |
* Rain latest hour (hover to see other rain measurements)
** Current wind speed in m/s (hover to see current wind gust speed)